LX1CU-13 Weather Reports


Display with metric or nautical units.
time (UTC)temp
F
wind
direction
speed
MPH
gust
MPH
rain 1hr
in
rain 24hr
in
rain mn
in
humidity
%
barometer
mb
20260506233829 47 292 0.0 0.0 0.00 0.00 0.00 83 1007.8
20260506233329 47 292 0.0 0.0 0.00 0.00 0.00 83 1007.7
20260506232829 47 292 0.0 0.0 0.00 0.00 0.00 83 1007.8
20260506232329 47 292 0.0 0.0 0.00 0.00 0.00 83 1007.8
20260506231829 47 292 0.0 0.0 0.00 0.00 0.00 83 1007.7
20260506231329 47 270 0.0 0.0 0.00 0.00 0.00 83 1007.7
20260506230829 47 270 0.0 0.0 0.00 0.00 0.00 83 1007.7
20260506230329 47 270 0.0 0.0 0.00 0.00 0.00 83 1007.7
20260506225829 47 292 0.0 0.0 0.00 0.00 0.00 83 1007.7
20260506225329 47 292 0.0 0.0 0.00 0.00 0.00 83 1007.7
20260506224829 47 292 0.0 0.0 0.00 0.00 0.00 83 1007.7
20260506224329 47 292 0.0 0.0 0.00 0.00 0.00 83 1007.7
20260506223829 47 292 0.0 0.0 0.00 0.00 0.00 83 1007.6
20260506223329 47 292 0.0 0.0 0.00 0.00 0.00 83 1007.6
20260506222829 47 292 0.0 0.0 0.00 0.00 0.00 83 1007.5
20260506222329 47 270 0.0 0.0 0.00 0.00 0.00 83 1007.5
20260506221829 47 270 0.0 0.0 0.00 0.00 0.00 83 1007.4
20260506221329 47 292 0.0 0.0 0.00 0.00 0.00 84 1007.4
20260506220829 47 247 0.0 0.0 0.00 0.00 0.00 84 1007.4
20260506220329 47 247 0.0 0.0 0.00 0.00 0.00 84 1007.3
20260506215829 47 247 0.0 0.0 0.00 0.00 0.00 83 1007.2
20260506215329 47 247 0.0 0.0 0.00 0.00 0.00 83 1007.2
20260506214829 47 247 0.0 0.0 0.00 0.00 0.00 83 1007.1
20260506214329 47 247 0.0 0.0 0.00 0.00 0.00 83 1007.0
20260506213829 47 247 0.0 0.0 0.00 0.00 0.00 83 1007.1
20260506213329 47 247 0.0 0.0 0.00 0.00 0.00 83 1007.0
20260506212829 47 247 0.0 0.0 0.00 0.00 0.00 83 1007.1
20260506212329 47 247 0.0 0.0 0.00 0.00 0.00 82 1007.1
20260506211829 47 247 0.0 0.0 0.00 0.00 0.00 82 1007.0
20260506211329 48 247 0.0 0.0 0.00 0.00 0.00 82 1006.9
20260506210829 48 247 0.0 0.0 0.00 0.00 0.00 82 1006.8
20260506210329 48 247 0.0 0.0 0.00 0.00 0.00 82 1006.9
20260506205829 48 247 0.0 0.0 0.00 0.00 0.00 82 1006.9
20260506205329 48 247 0.0 0.0 0.00 0.00 0.00 82 1006.9
20260506204829 48 292 0.0 0.0 0.00 0.00 0.00 81 1006.8
20260506204329 48 292 0.0 0.0 0.00 0.00 0.00 81 1006.8
20260506203829 48 292 0.0 0.0 0.00 0.00 0.00 81 1006.7
20260506203329 48 292 0.0 0.0 0.00 0.00 0.00 81 1006.7
20260506202829 48 292 0.0 0.0 0.00 0.00 0.00 81 1006.7
20260506202329 48 292 0.0 0.0 0.00 0.00 0.00 81 1006.7
20260506201829 49 292 0.0 0.0 0.00 0.00 0.00 81 1006.6
20260506201329 49 292 0.0 0.0 0.00 0.00 0.00 81 1006.5
20260506200829 49 292 0.0 0.0 0.00 0.00 0.00 81 1006.4
20260506200329 49 292 0.0 0.0 0.00 0.00 0.00 80 1006.4
20260506195829 49 292 0.0 0.0 0.00 0.00 0.00 80 1006.4
20260506195329 49 270 0.0 0.0 0.00 0.00 0.00 80 1006.3
20260506194829 49 270 0.0 0.0 0.00 0.00 0.00 80 1006.2
20260506194329 49 270 0.0 0.0 0.00 0.00 0.00 80 1006.2
20260506193829 49 270 0.0 0.0 0.00 0.00 0.00 80 1006.2
20260506193329 49 270 0.0 0.0 0.00 0.00 0.00 80 1006.1
20260506192829 49 315 0.0 0.0 0.00 0.00 0.00 79 1006.0
20260506192329 49 315 0.0 0.0 0.00 0.00 0.00 79 1005.9
20260506191829 50 315 0.0 0.0 0.00 0.00 0.00 79 1005.9
20260506191329 50 315 0.0 0.0 0.00 0.00 0.00 79 1005.9
20260506190829 50 315 0.0 0.0 0.00 0.00 0.00 79 1005.8
20260506190329 50 315 0.0 0.0 0.00 0.00 0.00 78 1005.8
20260506185829 50 315 0.0 0.0 0.00 0.00 0.00 78 1005.7
20260506185329 50 315 0.0 0.0 0.00 0.00 0.00 78 1005.6
20260506184829 50 315 0.0 0.0 0.00 0.00 0.00 78 1005.5
20260506184329 50 315 0.0 0.0 0.00 0.00 0.00 78 1005.5
20260506183829 50 315 0.0 0.0 0.00 0.00 0.00 78 1005.3
20260506183329 50 315 0.0 0.0 0.00 0.00 0.00 78 1005.3
20260506182829 51 315 0.0 0.0 0.00 0.00 0.00 78 1005.3
20260506182329 51 315 0.0 0.0 0.00 0.00 0.00 77 1005.1
20260506181829 51 315 0.0 0.0 0.00 0.00 0.00 77 1005.1
20260506181329 51 315 0.0 0.0 0.00 0.00 0.00 77 1004.9
20260506180829 51 247 0.0 0.0 0.00 0.00 0.00 77 1005.0
20260506180329 51 247 0.0 0.0 0.00 0.00 0.00 77 1004.8
20260506175829 51 337 0.0 0.0 0.00 0.00 0.00 77 1004.9
20260506175329 51 292 0.0 0.0 0.00 0.00 0.00 77 1004.8
20260506174829 52 292 0.0 0.0 0.00 0.00 0.00 77 1004.8
20260506174329 52 292 0.0 0.0 0.00 0.00 0.00 77 1004.9
20260506173829 52 292 0.0 0.0 0.00 0.00 0.00 77 1004.9
20260506173329 52 337 0.0 0.0 0.00 0.00 0.00 77 1004.9
20260506172829 52 315 0.0 0.0 0.00 0.00 0.00 77 1004.8
20260506172329 52 315 0.0 0.0 0.00 0.00 0.00 76 1004.8
20260506171829 52 315 0.0 0.0 0.00 0.00 0.00 76 1004.8
20260506171329 52 315 0.0 0.0 0.00 0.00 0.00 76 1004.7
20260506170829 53 337 0.0 0.0 0.00 0.00 0.00 76 1004.8
20260506170329 53 337 0.0 0.0 0.00 0.00 0.00 75 1004.7
20260506165829 53 337 0.0 0.0 0.00 0.00 0.00 75 1004.7
20260506165329 53 337 0.0 0.0 0.00 0.00 0.00 75 1004.7
20260506164829 54 337 0.0 0.0 0.00 0.00 0.00 75 1004.6
20260506164329 54 315 0.0 0.0 0.00 0.00 0.00 75 1004.6
20260506163829 54 337 0.0 0.0 0.00 0.00 0.00 75 1004.6
20260506163329 54 270 0.0 0.0 0.00 0.00 0.00 75 1004.6
20260506162829 54 270 0.0 0.0 0.00 0.00 0.00 74 1004.5
20260506162329 54 270 0.0 0.0 0.00 0.00 0.00 74 1004.5
20260506161829 55 292 0.0 0.0 0.00 0.00 0.00 74 1004.5
20260506161329 55 247 0.0 0.0 0.00 0.00 0.00 74 1004.5
20260506160829 54 337 0.0 0.0 0.00 0.00 0.00 74 1004.6
20260506160329 54 315 0.0 0.0 0.00 0.00 0.00 74 1004.6
20260506155829 54 292 0.0 0.0 0.00 0.00 0.00 73 1004.6
20260506155329 55 315 0.0 0.0 0.00 0.00 0.00 72 1004.5
20260506154829 55 315 0.0 0.0 0.00 0.00 0.00 71 1004.4
20260506154329 56 315 0.0 0.0 0.00 0.00 0.00 71 1004.4
20260506153829 57 315 0.0 0.0 0.00 0.00 0.00 69 1004.4
20260506153329 57 315 0.0 0.0 0.00 0.00 0.00 68 1004.3
20260506152829 58 292 0.0 4.0 0.00 0.00 0.00 68 1004.2
20260506152330 59 337 0.0 0.0 0.00 0.00 0.00 70 1004.2
20260506151830 58 270 0.0 0.0 0.00 0.00 0.00 71 1004.1
20260506151330 57 292 0.0 0.0 0.00 0.00 0.00 70 1004.1
20260506150830 57 247 0.0 0.0 0.00 0.00 0.00 69 1004.2
20260506150329 58 337 0.0 0.0 0.00 0.00 0.00 68 1004.2
20260506145830 60 337 0.0 0.0 0.00 0.00 0.00 69 1004.2
20260506145330 60 315 0.0 0.0 0.00 0.00 0.00 70 1004.1
20260506144830 59 247 0.0 0.0 0.00 0.00 0.00 71 1004.0
20260506144330 58 292 0.0 0.0 0.00 0.00 0.00 70 1004.1
20260506143830 58 337 0.0 0.0 0.00 0.00 0.00 69 1004.1
20260506143330 60 270 0.0 0.0 0.00 0.00 0.00 69 1004.0
20260506142830 60 337 0.0 0.0 0.00 0.00 0.00 70 1004.0
20260506142330 60 292 0.0 0.0 0.00 0.00 0.00 72 1004.0
20260506141830 59 292 0.0 0.0 0.00 0.00 0.00 72 1004.2
20260506141330 58 0 0.0 0.0 0.00 0.00 0.00 72 1004.1
20260506140830 57 0 0.0 0.0 0.00 0.00 0.00 76 1004.1
20260506140330 55 292 0.0 0.0 0.00 0.00 0.00 75 1004.1
20260506135830 56 337 0.0 0.0 0.00 0.00 0.00 75 1004.1
20260506135330 56 292 0.0 0.0 0.00 0.00 0.00 76 1004.0
20260506134830 55 337 0.0 0.0 0.00 0.00 0.00 76 1004.1
20260506134330 55 337 0.0 0.0 0.00 0.00 0.00 76 1004.2
20260506133830 55 337 0.0 0.0 0.00 0.00 0.00 76 1004.1
20260506133330 55 225 0.0 0.0 0.00 0.00 0.00 75 1004.1
20260506132830 55 337 0.0 0.0 0.00 0.00 0.00 75 1004.1
20260506132330 55 337 0.0 0.0 0.00 0.00 0.00 75 1004.1
20260506131830 56 315 0.0 0.0 0.00 0.00 0.00 75 1004.0
20260506131330 56 270 0.0 0.0 0.00 0.00 0.00 76 1004.0
20260506130830 56 315 0.0 0.0 0.00 0.00 0.00 77 1003.9
20260506130330 56 292 0.0 0.0 0.00 0.00 0.00 77 1003.9
20260506125830 55 270 0.0 0.0 0.00 0.00 0.00 76 1003.8
20260506125330 56 315 0.0 0.0 0.00 0.00 0.00 77 1003.8
20260506124830 56 315 0.0 0.0 0.00 0.00 0.00 77 1003.8
20260506124330 55 0 0.0 0.0 0.00 0.00 0.00 77 1003.7
20260506123830 55 337 0.0 0.0 0.00 0.00 0.00 77 1003.7
20260506123330 55 337 0.0 0.0 0.00 0.00 0.00 77 1003.7
20260506122830 55 247 0.0 0.0 0.00 0.00 0.00 77 1003.5
20260506122330 55 0 0.0 0.0 0.00 0.00 0.00 77 1003.5
20260506121830 55 247 0.0 1.0 0.00 0.00 0.00 77 1003.5
20260506121330 56 337 1.0 1.0 0.00 0.00 0.00 77 1003.5
20260506120830 56 337 0.0 0.0 0.00 0.00 0.00 77 1003.4
20260506120330 56 337 0.0 0.0 0.00 0.00 0.00 77 1003.4
20260506115830 56 247 0.0 0.0 0.00 0.00 0.00 78 1003.3
20260506115330 56 247 0.0 0.0 0.00 0.00 0.00 78 1003.2
20260506114830 56 247 0.0 0.0 0.00 0.00 0.00 78 1003.4
20260506114330 56 247 0.0 0.0 0.00 0.00 0.00 78 1003.3
20260506113830 56 270 0.0 0.0 0.00 0.00 0.00 77 1003.2
20260506113330 57 270 0.0 0.0 0.00 0.00 0.00 77 1003.2
20260506112830 56 270 0.0 0.0 0.00 0.00 0.00 78 1003.1
20260506112330 56 270 0.0 0.0 0.00 0.00 0.00 78 1003.2
20260506111830 56 270 0.0 0.0 0.00 0.00 0.00 78 1003.2
20260506111330 56 337 0.0 0.0 0.00 0.00 0.00 77 1003.2
20260506110830 56 225 0.0 0.0 0.00 0.00 0.00 77 1003.2
20260506110330 56 337 0.0 0.0 0.00 0.00 0.00 77 1003.1
20260506105830 56 315 0.0 0.0 0.00 0.00 0.00 77 1003.1
20260506105330 56 247 0.0 0.0 0.00 0.00 0.00 77 1003.0
20260506104830 56 315 0.0 0.0 0.00 0.00 0.00 77 1003.0
20260506104330 56 247 0.0 0.0 0.00 0.00 0.00 76 1002.9
20260506103830 56 315 0.0 0.0 0.00 0.00 0.00 76 1002.9
20260506103330 57 337 0.0 0.0 0.00 0.00 0.00 76 1002.9
20260506102830 57 270 0.0 0.0 0.00 0.00 0.00 77 1002.8
20260506102330 57 337 0.0 0.0 0.00 0.00 0.00 78 1002.9
20260506101830 57 292 0.0 0.0 0.00 0.00 0.00 79 1002.9
20260506101330 56 315 0.0 0.0 0.00 0.00 0.00 79 1002.8
20260506100830 56 337 0.0 0.0 0.00 0.00 0.00 80 1002.7
20260506100330 55 337 0.0 0.0 0.00 0.00 0.00 80 1002.7
20260506095830 55 337 0.0 0.0 0.00 0.00 0.00 81 1002.7
20260506095330 55 337 0.0 0.0 0.00 0.00 0.00 80 1002.7
20260506094830 55 247 0.0 0.0 0.00 0.00 0.00 80 1002.7
20260506094330 55 315 0.0 0.0 0.00 0.00 0.00 80 1002.7
20260506093830 55 292 0.0 0.0 0.00 0.00 0.00 81 1002.6
20260506093330 55 247 0.0 0.0 0.00 0.00 0.00 81 1002.4
20260506092830 55 337 0.0 0.0 0.00 0.00 0.00 81 1002.5
20260506092330 55 315 0.0 0.0 0.00 0.00 0.00 82 1002.5
20260506091830 55 337 0.0 0.0 0.00 0.00 0.00 82 1002.4
20260506091330 55 337 0.0 0.0 0.00 0.00 0.00 82 1002.4
20260506090830 55 315 0.0 0.0 0.00 0.00 0.00 83 1002.4
20260506090330 55 270 0.0 0.0 0.00 0.00 0.00 83 1002.4
20260506085830 54 337 0.0 0.0 0.00 0.00 0.00 83 1002.2
20260506085330 55 315 0.0 0.0 0.00 0.00 0.00 83 1002.2
20260506084830 54 247 0.0 0.0 0.00 0.00 0.00 83 1002.1
20260506084330 54 270 0.0 6.0 0.00 0.00 0.00 83 1002.0
20260506083830 55 315 0.0 0.0 0.00 0.00 0.00 84 1002.0
20260506083330 54 337 0.0 0.0 0.00 0.00 0.00 85 1001.9
20260506082830 54 337 0.0 0.0 0.00 0.00 0.00 85 1001.9
20260506082330 53 270 0.0 0.0 0.00 0.00 0.00 85 1002.0
20260506081830 53 337 0.0 0.0 0.00 0.00 0.00 84 1001.9
20260506081330 53 247 0.0 0.0 0.00 0.00 0.00 84 1002.0
20260506080830 54 247 0.0 0.0 0.00 0.00 0.00 84 1002.0
20260506080330 54 337 0.0 0.0 0.00 0.00 0.00 85 1002.0
20260506073330 55 337 0.0 0.0 0.00 0.00 0.00 86 1001.9
20260506072830 55 315 0.0 0.0 0.00 0.00 0.00 87 1001.8
20260506072330 55 247 0.0 0.0 0.00 0.00 0.00 87 1001.8
20260506071830 54 315 0.0 0.0 0.00 0.00 0.00 88 1001.7
20260506071330 54 247 0.0 0.0 0.00 0.00 0.00 89 1001.7
20260506070830 54 247 0.0 0.0 0.00 0.00 0.00 89 1001.6
20260506070330 53 247 0.0 0.0 0.00 0.00 0.00 90 1001.7
20260506062331 52 247 0.0 0.0 0.00 0.00 0.00 91 1001.6
20260506061831 52 247 0.0 0.0 0.00 0.00 0.00 92 1001.5
20260506061331 51 247 0.0 0.0 0.00 0.00 0.00 92 1001.5
20260506060831 51 292 0.0 0.0 0.00 0.00 0.00 92 1001.5
20260506060331 51 292 0.0 0.0 0.00 0.00 0.00 92 1001.5
20260506051331 51 270 0.0 0.0 0.00 0.00 0.00 92 1001.3
20260506050831 51 270 0.0 0.0 0.00 0.00 0.00 92 1001.3
20260506050331 51 270 0.0 0.0 0.00 0.00 0.00 92 1001.3
20260506044831 51 270 0.0 0.0 0.00 0.00 0.00 92 1001.3
20260506044331 51 270 0.0 0.0 0.00 0.00 0.00 92 1001.3
20260506043831 51 270 0.0 0.0 0.00 0.00 0.00 92 1001.3
20260506043331 51 270 0.0 0.0 0.00 0.00 0.00 92 1001.2
20260506042831 51 270 0.0 0.0 0.00 0.00 0.00 92 1001.2
20260506042331 51 270 0.0 0.0 0.00 0.00 0.00 92 1001.3
20260506041831 51 270 0.0 0.0 0.00 0.00 0.00 92 1001.2
20260506041331 51 270 0.0 0.0 0.00 0.00 0.00 92 1001.3
20260506040831 51 270 0.0 0.0 0.00 0.00 0.00 92 1001.4
20260506040331 51 270 0.0 0.0 0.00 0.00 0.00 92 1001.4
20260506035831 51 270 0.0 0.0 0.00 0.00 0.00 92 1001.4
20260506035331 51 270 0.0 0.0 0.00 0.00 0.00 92 1001.4
20260506034831 51 270 0.0 0.0 0.00 0.00 0.00 92 1001.4
20260506034331 51 270 0.0 0.0 0.00 0.00 0.00 92 1001.4
20260506033831 51 270 0.0 0.0 0.00 0.00 0.00 92 1001.4
20260506033331 51 270 0.0 0.0 0.00 0.00 0.00 92 1001.4
20260506032831 51 270 0.0 0.0 0.00 0.00 0.00 92 1001.4
20260506032331 52 270 0.0 0.0 0.00 0.00 0.00 92 1001.4
20260506031831 52 270 0.0 0.0 0.00 0.00 0.00 92 1001.4
20260506031331 52 270 0.0 0.0 0.00 0.00 0.00 92 1001.4
20260506031003 52 270 0.0 0.0 0.00 0.00 0.00 92 1001.4
20260506030331 52 270 0.0 0.0 0.00 0.00 0.00 92 1001.4
20260506025831 52 270 0.0 0.0 0.00 0.00 0.00 92 1001.4
20260506025331 52 270 0.0 0.0 0.00 0.00 0.00 92 1001.4
20260506024831 52 270 0.0 0.0 0.00 0.00 0.00 92 1001.3
20260506024331 52 270 0.0 0.0 0.00 0.00 0.00 92 1001.4
20260506023831 52 270 0.0 0.0 0.00 0.00 0.00 92 1001.3
20260506023331 52 270 0.0 0.0 0.00 0.00 0.00 92 1001.3
20260506022831 52 270 0.0 0.0 0.00 0.00 0.00 92 1001.3
20260506022331 52 292 0.0 0.0 0.00 0.00 0.00 92 1001.3
20260506021831 52 270 0.0 0.0 0.00 0.00 0.00 92 1001.3
20260506021331 52 67 0.0 0.0 0.00 0.00 0.00 92 1001.3
20260506021010 52 67 0.0 0.0 0.00 0.00 0.00 91 1001.3
20260506020331 52 67 0.0 0.0 0.00 0.00 0.00 91 1001.3
20260506015831 52 67 0.0 0.0 0.00 0.00 0.00 91 1001.4
20260506015331 52 90 0.0 0.0 0.00 0.00 0.00 91 1001.4
20260506014831 52 90 0.0 0.0 0.00 0.00 0.00 91 1001.4
20260506014331 52 90 0.0 0.0 0.00 0.00 0.00 92 1001.4
20260506013831 52 112 0.0 0.0 0.00 0.00 0.00 92 1001.5
20260506013331 52 90 0.0 0.0 0.00 0.00 0.00 92 1001.4
20260506012831 53 90 0.0 0.0 0.00 0.00 0.00 92 1001.5
20260506012331 53 90 0.0 0.0 0.00 0.00 0.00 92 1001.5
20260506011831 53 90 0.0 0.0 0.00 0.00 0.00 92 1001.7
20260506011331 53 90 0.0 0.0 0.00 0.00 0.00 92 1001.6
20260506010831 53 112 0.0 0.0 0.00 0.00 0.00 92 1001.7
20260506010331 53 135 0.0 0.0 0.00 0.00 0.00 92 1001.7
20260506005831 53 135 0.0 0.0 0.00 0.00 0.00 92 1001.6
20260506005331 53 135 0.0 0.0 0.00 0.00 0.00 92 1001.7
20260506004831 53 135 0.0 0.0 0.00 0.00 0.00 92 1001.7
20260506004331 53 135 0.0 0.0 0.00 0.00 0.00 92 1001.8
20260506003831 53 135 0.0 0.0 0.00 0.00 0.00 92 1001.8
20260506003331 53 112 0.0 0.0 0.00 0.00 0.00 92 1001.9
20260506002831 53 112 0.0 0.0 0.00 0.00 0.00 92 1001.8
20260506002331 53 112 0.0 0.0 0.00 0.00 0.00 92 1001.9
20260506001831 53 112 0.0 0.0 0.00 0.00 0.00 92 1001.9
20260506001331 53 112 0.0 0.0 0.00 0.00 0.00 92 1002.0
20260506000831 53 112 0.0 0.0 0.00 0.00 0.00 92 1002.0
20260506000331 53 112 0.0 0.0 0.00 0.00 0.00 92 1002.1
20260505235831 53 112 0.0 0.0 0.00 0.00 0.00 92 1002.2
20260505235331 53 112 0.0 0.0 0.00 0.00 0.00 92 1002.2
20260505234832 53 112 0.0 0.0 0.00 0.00 0.00 92 1002.2
20260505234331 53 112 0.0 0.0 0.00 0.00 0.00 92 1002.3